TimeICT,TemperatureF,Dew PointF,Humidity,Sea Level PressureIn,VisibilityMPH,Wind Direction,Wind SpeedMPH,Gust SpeedMPH,PrecipitationIn,Events,Conditions,WindDirDegrees,DateUTC
12:00 AM,84.2,71.6,66,29.77,-9999.0,North,3.5,-,N/A,,Clear,360,2012-12-29 17:00:00
12:30 AM,84.2,71.6,66,29.80,-9999.0,North,5.8,-,N/A,,Clear,350,2012-12-29 17:30:00
1:00 AM,84,71,58,29.79,6,NNE,4.6,,,,Scattered Clouds,20,2012-12-29 18:00:00
1:00 AM,84.2,71.6,66,29.77,-9999.0,NNE,4.6,-,N/A,,Clear,20,2012-12-29 18:00:00
1:30 AM,82.4,71.6,70,29.77,-9999.0,North,8.1,-,N/A,,Clear,350,2012-12-29 18:30:00
2:00 AM,82.4,71.6,70,29.77,-9999.0,NNW,3.5,-,N/A,,Clear,340,2012-12-29 19:00:00
2:30 AM,82.4,71.6,70,29.74,5.6,North,4.6,-,N/A,,Unknown,360,2012-12-29 19:30:00
3:00 AM,80.6,71.6,74,29.74,5.0,North,3.5,-,N/A,,Unknown,10,2012-12-29 20:00:00
3:30 AM,80.6,68.0,65,29.74,5.0,NNE,4.6,-,N/A,,Scattered Clouds,30,2012-12-29 20:30:00
4:00 AM,80.6,69.8,70,29.77,5.0,North,3.5,-,N/A,,Mostly Cloudy,360,2012-12-29 21:00:00
4:30 AM,80.6,69.8,70,29.77,5.0,NE,5.8,-,N/A,,Mostly Cloudy,50,2012-12-29 21:30:00
5:00 AM,80.6,69.8,70,29.77,5.0,NE,5.8,-,N/A,,Mostly Cloudy,50,2012-12-29 22:00:00
5:30 AM,78.8,69.8,74,29.77,5.0,North,4.6,-,N/A,,Mostly Cloudy,360,2012-12-29 22:30:00
6:00 AM,80.6,69.8,70,29.77,5.0,NNE,5.8,-,N/A,,Mostly Cloudy,30,2012-12-29 23:00:00
6:30 AM,80.6,69.8,70,29.77,5.0,North,5.8,-,N/A,,Mostly Cloudy,360,2012-12-29 23:30:00
7:00 AM,79,71,69,29.80,5,North,3.5,,,,Mist,0,2012-12-30 00:00:00
7:00 AM,78.8,69.8,74,29.80,5.0,North,3.5,-,N/A,,Mostly Cloudy,360,2012-12-30 00:00:00
7:30 AM,78.8,69.8,74,29.80,5.0,North,3.5,-,N/A,,Mostly Cloudy,360,2012-12-30 00:30:00
8:00 AM,80.6,71.6,74,29.80,5.0,North,2.3,-,N/A,,Scattered Clouds,360,2012-12-30 01:00:00
8:30 AM,82.4,71.6,70,29.80,5.6,NNE,3.5,-,N/A,,Scattered Clouds,30,2012-12-30 01:30:00
9:00 AM,84.2,71.6,66,29.83,6.2,North,3.5,-,N/A,,Scattered Clouds,10,2012-12-30 02:00:00
9:30 AM,87.8,71.6,58,29.83,6.2,North,3.5,-,N/A,,Scattered Clouds,360,2012-12-30 02:30:00
10:00 AM,87.8,69.8,55,29.83,6.2,ENE,4.6,-,N/A,,Mostly Cloudy,60,2012-12-30 03:00:00
10:30 AM,87.8,69.8,55,29.83,6.2,NNE,3.5,-,N/A,,Mostly Cloudy,30,2012-12-30 03:30:00
11:00 AM,87.8,69.8,55,29.83,6.2,ENE,3.5,-,N/A,,Mostly Cloudy,60,2012-12-30 04:00:00
11:30 AM,89.6,69.8,52,29.83,6.2,NNW,4.6,-,N/A,,Mostly Cloudy,330,2012-12-30 04:30:00
12:00 PM,91.4,69.8,49,29.80,6.2,East,5.8,-,N/A,,Mostly Cloudy,90,2012-12-30 05:00:00
12:30 PM,91.4,69.8,49,29.80,6.2,East,4.6,-,N/A,,Mostly Cloudy,80,2012-12-30 05:30:00
1:00 PM,94,69,35,29.80,6,East,4.6,,,,Scattered Clouds,80,2012-12-30 06:00:00
1:00 PM,95.0,69.8,44,29.77,6.2,East,4.6,-,N/A,,Mostly Cloudy,80,2012-12-30 06:00:00
1:30 PM,95.0,69.8,44,29.77,6.2,East,4.6,-,N/A,,Mostly Cloudy,90,2012-12-30 06:30:00
2:00 PM,95.0,68.0,41,29.74,6.2,SE,3.5,-,N/A,,Scattered Clouds,140,2012-12-30 07:00:00
2:30 PM,96.8,69.8,41,29.74,6.2,NE,8.1,-,N/A,,Scattered Clouds,50,2012-12-30 07:30:00
3:00 PM,96.8,71.6,44,29.74,6.2,NE,6.9,-,N/A,,Scattered Clouds,50,2012-12-30 08:00:00
3:30 PM,95.0,71.6,47,29.74,6.2,ENE,3.5,-,N/A,,Scattered Clouds,60,2012-12-30 08:30:00
4:00 PM,95.0,71.6,47,29.74,6.2,NNE,3.5,-,N/A,,Scattered Clouds,30,2012-12-30 09:00:00
4:30 PM,93.2,71.6,49,29.74,6.2,ESE,5.8,-,N/A,,Scattered Clouds,110,2012-12-30 09:30:00
5:00 PM,93.2,71.6,49,29.74,6.2,SSE,5.8,-,N/A,,Scattered Clouds,150,2012-12-30 10:00:00
5:30 PM,93.2,71.6,49,29.74,6.2,ESE,4.6,-,N/A,,Scattered Clouds,110,2012-12-30 10:30:00
6:00 PM,91.4,71.6,52,29.74,6.2,East,4.6,-,N/A,,Scattered Clouds,80,2012-12-30 11:00:00
6:30 PM,89.6,71.6,55,29.74,6.2,East,3.5,-,N/A,,Scattered Clouds,80,2012-12-30 11:30:00
7:00 PM,90,72,46,29.77,6,NE,3.5,,,,Scattered Clouds,50,2012-12-30 12:00:00
7:00 PM,89.6,71.6,55,29.77,6.2,NE,3.5,-,N/A,,Scattered Clouds,50,2012-12-30 12:00:00
7:30 PM,89.6,71.6,55,29.77,6.2,ENE,3.5,-,N/A,,Scattered Clouds,70,2012-12-30 12:30:00
8:00 PM,89.6,73.4,59,29.80,6.2,East,3.5,-,N/A,,Scattered Clouds,90,2012-12-30 13:00:00
8:30 PM,87.8,73.4,62,29.80,6.2,North,4.6,-,N/A,,Scattered Clouds,10,2012-12-30 13:30:00
9:00 PM,87.8,73.4,62,29.80,6.2,ENE,3.5,-,N/A,,Mostly Cloudy,60,2012-12-30 14:00:00
9:30 PM,87.8,73.4,62,29.80,6.2,ESE,3.5,-,N/A,,Mostly Cloudy,120,2012-12-30 14:30:00
10:00 PM,87.8,73.4,62,29.83,6.2,East,3.5,-,N/A,,Mostly Cloudy,90,2012-12-30 15:00:00
10:30 PM,87.8,73.4,62,29.83,6.2,East,4.6,-,N/A,,Mostly Cloudy,80,2012-12-30 15:30:00
11:00 PM,86.0,73.4,66,29.83,6.2,East,6.9,-,N/A,,Mostly Cloudy,100,2012-12-30 16:00:00
11:30 PM,86.0,73.4,66,29.83,6.2,East,6.9,-,N/A,,Mostly Cloudy,90,2012-12-30 16:30:00